Location: Catacaguana
(10.4120°N, 66.7591°W)
Time: 06:21:32
(UTC+00:00)

USA 186 - Pass Details

Date: 27 May 2022
Orbit: 275 x 448 km, 96.9° (Epoch: 28 April)

Event Time Altitude Azimuth Distance (km) Brightness Sun altitude
Exits shadow 00:27:06 10° 349° (N) 1,154 4.5 -23.8°
Drops below altitude 10° 00:27:14 - 349° (N) 1,208 4.6 -23.8°
Sets 00:28:56 0° 349° (N) 1,970 5.7 -24.2°
